Погода в Досанге

Погода в Досанге : погода сейчас, прогноз погоды и архив. Всё, что Вы хотите узнать о погоде в Досанге!

Хотите узнать прогноз погоды в Досанге? Тогда Вам сюда: Погода в Досанге

Поиск расширенной информации на нашем сайте:

Другие новости

Новости СМИ2

Главная страница сайта

Новости сайта

03.07.2017

Напоминаем, что на нашем специализированном сайте Метеоцентр.Азия вы можете получить высокодетализированные автоматические прогнозы погоды по пунктам России, СНГ и мира в авиационном формате (включающие направление и скорость ветра, видимость, явления погоды, количество и форму облачности, нижнюю и верхнюю границу облачности).


Погода в Досанге - сегодня

Время (UTC), дата Ветер
(°,м/с) 
Видим.   Явления Облачность Т
(°С)
Тd
(°С)
f(%) Тe
(°С)
Pmin
(гПа)
dP
(гПа)
Po
(мм)
O2
(г/м3)
Тmin Tmax R s Состояние
почвы
03 18.02.18 090 (В) 10 км    10/10 600 м 
[Sc]
-5 -8.3 78 -9  1024.6  -0.8  770  317  -7.2      мокрый или
старый снег
10-40% 
06 18.02.18 090 (В) 4000 м  слаб. снег  10/10 300 м 
[Frnb|Ns]
-5.3 -6.8 89 -10  1024.8  0.3  770  317           
09 18.02.18 100 (В) 6{10}  20000 м  {снег}  10/10 300 м 
[Sc]
-3.3 -6.9 76 -7  1024  -0.9  770  315           
12 18.02.18 100 (В) 20000 м  {снег}  10/0 средняя 
[Ac As]
-1.7 -6.4 70 -5  1022.6  -1.4  769  312           
15 18.02.18 090 (В) 10 км    10/0 средняя 
[Ac und]
-2.9 -7 73 -6  1023.8  1.2  770  314    -1.6  0.2     
18 18.02.18 100 (В) 10 км    10/10 300 м 
[Sc]
-3.5 -7 77 -6  1023.9  0.1  770  315           
21 18.02.18 100 (В) 10 км    10/10 300 м 
[Sc]
-3.7 -6.9 78 -7  1023.4  -0.5  769  315           
00 19.02.18 100 (В) 10 км    10/0 средняя 
[Ac und]
-5.3 -7.8 83 -9  1022.5  -0.9  769  317           
03 19.02.18 060 (СВ) 10 км    4/0 средняя 
[Ac trans]
-8.4 -10 88 -11  1021.9  -0.6  768  320  -8.4      равномерный
сухой снег
100% 
06 19.02.18 080 (В) 20000 м    8/0 верхняя 
[Cs]
-7.7 -10.2 82 -10  1022.2  0.4  768  320  -9         
09 19.02.18 070 (В) 20000 м    10/0 верхняя 
[Ci fib]
-1 -8.4 57 -2  1021.7  -0.6  768  311           
12 19.02.18 060 (СВ) 20000 м    8/0 верхняя 
[Ci fib]
+1.6 -8.9 46 +1  1020.8  -1  767  308           
15 19.02.18 070 (В) 10 км    3/0 средняя 
[Ac trans]
-3.1 -7.6 71 -5  1021.4  0.7  768  314    +1.6       
18 19.02.18 120 (ЮВ) 10 км    10/0 средняя 
[Ac As]
-4 -7.8 75 -5  1021.4  768  315           
21 19.02.18 130 (ЮВ) 10 км    10/0 средняя 
[Ac As]
-3.8 -7.3 77 -3  1021  -0.4  767  314           
00 20.02.18 140 (ЮВ) 10 км    10/3 300 м средняя 
[Frnb|As op]
-3.6 -7.1 77 -3  1020.5  -0.5  767  314           
03 20.02.18 120 (ЮВ) 10 км    10/0 средняя 
[Ac As]
-6.5 -7.5 93 -10  1026.4  772  319  -10.7      равномерный
мокрый или
старый снег
100% 
06 20.02.18 тихо ()   20000 м    10/0 средняя 
[Ac As]
-4.2 -7.4 78 -4  1028.7  1.4  773  317  -5.9         
09 20.02.18 310 (СЗ) 20000 м    10/0 средняя 
[Ac As]
+0.4 -3.4 76 1021.2  0.1  768  309           
12 20.02.18 340 (С) 20000 м    6/6 600 м 
[Sc]
+1.3 -3.8 69 -1  1020.9  -0.4  767  308           
15 20.02.18 360 (С) 10 км    3/0 верхняя 
[Ci fib]
-3.5 -5.2 88 -5  1022  1.3  768  314    +2.1       
18 20.02.18 070 (В) 10 км    ясно 
-7.8 -10.8 79 -11  1037.8  0.3  780  325           
21 20.02.18 340 (С) 10 км    ясно 
-6.5 -7.3 94 -6  1023.4  0.3  769  318           
00 21.02.18 320 (СЗ) 10 км    3/0 верхняя 
[Ci fib]
-8 -9 93 -8  1024.2  0.8  770  321           
03 21.02.18 350 (С) 2000 м  дымка  ясно 
-8.9 -10 92 -9  1025  0.9  771  322  -9.6      мокрый или
старый снег
10-40% 
Время (UTC), дата Ветер
(°,м/с) 
Видим.   Явления Облачность Т
(°С)
Тd
(°С)
f(%) Тe
(°С)
Pmin
(гПа)
dP
(гПа)
Po
(мм)
O2
(г/м3)
Тmin Tmax R s Состояние
почвы

Для получения пояснительной информации подведите курсор к названию столбца.

ПОГОДА в Досанге - архив

Всё, что Вы хотите узнать о погоде в Досанге - удобно и подробно!

Выберите нужную дату (начиная с 1 января 2015* года) и нажмите кнопку "Найти".
Будут отображены архивные сводки погоды по пункту Досанг, начиная с указанной даты.


Отображать данные в формате CSV (для использования в таблицах Excel)


Внимание! Наш архив погоды предназначен исключительно для личного некоммерческого использования в познавательных целях. Если Вам необходимы официальные справки о состоянии погоды (для производственных, юридических, коммерческих и т.п. целей), обращайтесь в органы Росгидромета.

*Примечание: данная дата относится к архиву по метеостанциям СССР (Россия, СНГ, Балтия).
Архив по метеостанциям Зарубежной Европы и Азии (кроме Китая) хранится 10 дней, по другим регионам земного шара (Китай, Африка, Америка, Австралия, Океания) - 1 день.

Досанг - район местоположения метеостанции


Название, широта, долгота, высота метеостанции:
Досанг 46.9°ш. 47.9°д. -19 м над ур. моря [Российская Федерация]

Дополнительная информация

В oтличие oт бoльшинства пoгoдных сайтoв мы публикуем пoдрoбную метеoинфoрмацию в детальнoм прoфессиoнальнoм фoрмате.

Характеристики температуры и влажнoсти вoздуха измеряются на высoте 2 м в тени вдали oт зданий и деревьев.
Скoрoсть ветра измеряется на высoте 10 м (на урoвне рoста челoвека скoрoсть ветра ниже в 1.5-2 раза). Если метеoстанция нахoдится в гoрoде или в лесу, тo скoрoсть ветра занижена на 2-4 м/с пo сравнению с oткрытым местoм. Скoрoсть ветра над акватoриями крупных рек и oзёр, а также на вершинах хoлмoв на 2-5 м/с выше, чем в oбычных услoвиях.
Атмoсфернoе давление в разных тoчках местнoсти мoжет значительнo oтличаться oт давления на метеoстанции, в зависимoсти oт услoвий рельефа (при пoдъёме на 10 м давление пoнижается примернo на 1 мм рт.ст.).